EW6358 Weather Reports


time (UTC)temp
F
wind
direction
speed
knots
gust
knots
rain 1hr
in
rain 24hr
in
rain mn
in
humidity
%
barometer
mb
20260906135000 80 253 0.9 1.7 0.00 0.00 0.00 78 1013.5
20260906134505 80 222 0.0 2.6 0.00 0.00 0.00 79 1013.4
20260906134006 79 260 0.9 2.6 0.00 0.00 0.00 79 1013.4
20260906133500 79 251 0.0 2.6 0.00 0.00 0.00 81 1013.4
20260906133008 78 242 1.7 2.6 0.00 0.00 0.00 82 1013.4
20260906132504 77 200 1.7 2.6 0.00 0.00 0.00 83 1013.4
20260906132005 77 228 1.7 2.6 0.00 0.00 0.00 85 1013.4
20260906131514 76 232 1.7 2.6 0.00 0.00 0.00 86 1013.3
20260906131008 75 239 0.9 1.7 0.00 0.00 0.00 87 1013.2
20260906130508 75 200 0.0 0.0 0.00 0.00 0.00 87 1013.4
20260906130022 74 182 0.0 0.0 0.00 0.00 0.00 87 1013.5
20260906125509 74 182 0.0 0.0 0.00 0.00 0.00 87 1013.6
20260906125014 74 182 0.0 0.0 0.00 0.00 0.00 87 1013.5
20260906124530 73 182 0.0 0.0 0.00 0.00 0.00 87 1013.6
20260906124003 73 182 0.0 0.0 0.00 0.00 0.00 87 1013.7
20260906123503 73 219 0.0 0.0 0.00 0.00 0.00 86 1013.6
20260906123010 73 217 0.0 0.0 0.00 0.00 0.00 87 1013.5
20260906122504 73 217 0.0 0.0 0.00 0.00 0.00 86 1013.4
20260906122006 73 217 0.0 0.0 0.00 0.00 0.00 87 1013.4
20260906121513 73 217 0.0 0.0 0.00 0.00 0.00 86 1013.4
20260906121005 73 217 0.0 0.0 0.00 0.00 0.00 86 1013.4
20260906120508 73 217 0.0 0.0 0.00 0.00 0.00 86 1013.4
20260906120018 73 217 0.0 0.0 0.00 0.00 0.00 86 1013.4
20260906115511 73 217 0.0 0.0 0.00 0.00 0.00 86 1013.3
20260906115011 73 217 0.0 0.0 0.00 0.00 0.00 86 1013.2
20260906114542 73 217 0.0 0.0 0.00 0.00 0.00 86 1013.2
20260906114010 73 9 0.0 0.0 0.00 0.00 0.00 86 1013.4
20260906113515 74 9 0.0 0.0 0.00 0.00 0.00 86 1013.4
20260906113030 74 9 0.0 0.0 0.00 0.00 0.00 86 1013.5
20260906112503 74 9 0.0 0.0 0.00 0.00 0.00 86 1013.4
20260906112003 74 15 0.0 0.0 0.00 0.00 0.00 86 1013.4
20260906111511 74 15 0.0 0.0 0.00 0.00 0.00 86 1013.4
20260906111004 74 15 0.0 0.0 0.00 0.00 0.00 87 1013.3
20260906110508 74 54 0.0 0.0 0.00 0.00 0.00 87 1013.4
20260906110033 74 82 0.0 0.0 0.00 0.00 0.00 87 1013.4
20260906105509 73 163 0.0 0.0 0.00 0.00 0.00 87 1013.3
20260906105011 73 163 0.0 0.0 0.00 0.00 0.00 87 1013.2
20260906104532 73 163 0.0 0.0 0.00 0.00 0.00 86 1013.0
20260906104012 73 163 0.0 0.0 0.00 0.00 0.00 86 1013.1
20260906103514 73 163 0.0 0.0 0.00 0.00 0.00 86 1013.0
20260906103031 73 163 0.0 0.0 0.00 0.00 0.00 86 1013.0
20260906102516 73 163 0.0 0.0 0.00 0.00 0.00 86 1013.1
20260906102017 73 163 0.0 0.0 0.00 0.00 0.00 86 1013.0
20260906101510 73 163 0.0 0.0 0.00 0.00 0.00 86 1013.0
20260906101004 73 163 0.0 0.0 0.00 0.00 0.00 86 1012.9
20260906100508 73 163 0.0 0.0 0.00 0.00 0.00 86 1012.9
20260906100014 73 163 0.0 0.0 0.00 0.00 0.00 86 1012.9
20260906095511 73 163 0.0 0.0 0.00 0.00 0.00 86 1013.0
20260906095008 73 163 0.0 0.0 0.00 0.00 0.00 86 1012.9
20260906094550 74 59 0.0 0.0 0.00 0.00 0.00 86 1012.8
20260906094010 74 59 0.0 0.0 0.00 0.00 0.00 86 1012.8
20260906093512 74 59 0.0 0.0 0.00 0.00 0.00 86 1012.8
20260906093042 74 59 0.0 0.0 0.00 0.00 0.00 86 1012.8
20260906092517 74 59 0.0 0.0 0.00 0.00 0.00 86 1012.8
20260906092016 74 59 0.0 0.0 0.00 0.00 0.00 86 1012.9
20260906091532 74 59 0.0 0.0 0.00 0.00 0.00 86 1012.9
20260906091017 74 59 0.0 0.0 0.00 0.00 0.00 86 1012.9
20260906090518 74 59 0.0 0.0 0.00 0.00 0.00 86 1013.0
20260906090023 74 28 0.0 0.0 0.00 0.00 0.00 86 1013.1
20260906085507 74 28 0.0 0.0 0.00 0.00 0.00 86 1013.0
20260906085007 74 28 0.0 0.0 0.00 0.00 0.00 86 1013.0
20260906084521 74 28 0.0 1.7 0.00 0.00 0.00 86 1012.9
20260906084011 74 28 0.0 2.6 0.00 0.00 0.00 86 1012.8
20260906083510 74 37 1.7 2.6 0.00 0.00 0.00 86 1012.7
20260906083041 74 310 0.0 0.0 0.00 0.00 0.00 86 1012.7
20260906082513 74 310 0.0 0.0 0.00 0.00 0.00 86 1012.7
20260906082017 74 214 0.0 0.0 0.00 0.00 0.00 86 1012.7
20260906081537 74 214 0.0 0.0 0.00 0.00 0.00 86 1012.5
20260906081015 74 223 0.0 0.0 0.00 0.00 0.00 86 1012.6
20260906080515 74 299 0.0 0.0 0.00 0.00 0.00 86 1012.7
20260906080039 74 299 0.0 0.0 0.00 0.00 0.00 86 1012.7
20260906075517 74 299 0.0 0.0 0.00 0.00 0.00 86 1012.8
20260906075007 74 299 0.0 0.0 0.00 0.00 0.00 86 1012.8
20260906074521 74 299 0.0 0.0 0.00 0.00 0.00 86 1012.8
20260906074007 74 299 0.0 0.0 0.00 0.00 0.00 86 1012.9
20260906073500 75 185 0.0 0.0 0.00 0.00 0.00 86 1012.9
20260906073004 75 185 0.0 0.0 0.00 0.00 0.00 86 1012.8
20260906072502 75 185 0.0 0.0 0.00 0.00 0.00 85 1012.7
20260906072002 75 185 0.0 0.0 0.00 0.00 0.00 85 1012.6
20260906071504 75 185 0.0 0.0 0.00 0.00 0.00 85 1012.4
20260906071004 75 185 0.0 0.9 0.00 0.00 0.00 85 1012.3
20260906070502 75 141 0.0 1.7 0.00 0.00 0.00 85 1012.1
20260906070010 75 141 0.9 1.7 0.00 0.00 0.00 85 1012.1
20260906065505 75 40 0.0 3.5 0.00 0.00 0.00 86 1012.0
20260906065004 75 64 1.7 3.5 0.00 0.00 0.00 86 1012.1
20260906064516 75 23 0.0 2.6 0.00 0.00 0.00 86 1012.2
20260906064008 75 211 0.9 3.5 0.00 0.00 0.00 86 1012.2
20260906063507 75 225 2.6 3.5 0.00 0.00 0.00 86 1012.1
20260906063024 75 184 0.9 2.6 0.00 0.00 0.00 86 1012.2
20260906062509 75 209 2.6 2.6 0.00 0.00 0.00 85 1012.4
20260906062002 75 230 0.9 3.5 0.00 0.00 0.00 86 1012.7
20260906061504 75 27 0.0 3.5 0.00 0.00 0.00 86 1013.0
20260906061003 75 42 1.7 3.5 0.00 0.00 0.00 86 1013.1
20260906060503 75 49 1.7 3.5 0.00 0.00 0.00 86 1013.2
20260906060008 75 40 0.9 2.6 0.00 0.00 0.00 85 1013.4
20260906055504 74 59 0.9 2.6 0.00 0.00 0.00 85 1013.2
20260906055005 74 47 0.0 0.0 0.00 0.00 0.00 85 1013.1
20260906054513 75 155 0.0 0.0 0.00 0.00 0.00 85 1013.2
20260906054010 75 155 0.0 0.0 0.00 0.00 0.00 85 1013.0
20260906053510 74 155 0.0 0.0 0.00 0.00 0.00 85 1013.0
20260906053023 75 155 0.0 0.0 0.00 0.00 0.00 85 1013.1
20260906052512 75 155 0.0 0.0 0.00 0.00 0.00 85 1013.0
20260906052011 75 155 0.0 0.0 0.00 0.00 0.00 85 1013.2
20260906051527 75 155 0.0 0.0 0.00 0.00 0.00 85 1013.2
20260906051004 75 155 0.0 0.0 0.00 0.00 0.00 85 1013.2
20260906050518 75 155 0.0 0.0 0.00 0.00 0.00 85 1013.1
20260906050007 75 155 0.0 0.0 0.00 0.00 0.00 85 1013.2
20260906045508 75 155 0.0 0.0 0.00 0.00 0.00 85 1013.2
20260906045003 75 155 0.0 0.0 0.00 0.00 0.00 84 1013.2
20260906044514 75 155 0.0 0.0 0.00 0.00 0.00 85 1013.3
20260906044007 75 155 0.0 0.0 0.00 0.00 0.00 84 1013.4
20260906043505 75 155 0.0 0.0 0.00 0.00 0.00 85 1013.4
20260906043020 75 155 0.0 0.0 0.00 0.00 0.00 84 1013.4
20260906042511 75 155 0.0 0.0 0.00 0.00 0.00 84 1013.3
20260906042011 75 155 0.0 0.0 0.00 0.00 0.00 85 1013.3
20260906041527 75 155 0.0 1.7 0.00 0.00 0.00 85 1013.3
20260906041014 75 214 0.0 1.7 0.00 0.00 0.00 84 1013.3
20260906040515 75 214 0.0 2.6 0.00 0.00 0.00 84 1013.3
20260906040016 75 214 0.9 2.6 0.00 0.00 0.00 85 1013.4
20260906035505 75 157 0.9 1.7 0.00 0.00 0.00 84 1013.5
20260906035004 75 232 0.0 0.0 0.00 0.00 0.00 84 1013.3
20260906034509 75 232 0.0 0.0 0.00 0.00 0.00 84 1013.3
20260906034004 76 232 0.0 0.0 0.00 0.00 0.00 84 1013.4
20260906033507 76 232 0.0 0.0 0.00 0.00 0.00 84 1013.4
20260906033016 76 232 0.0 0.0 0.00 0.00 0.00 84 1013.4
20260906032509 76 232 0.0 0.0 0.00 0.00 0.00 84 1013.5
20260906032011 76 232 0.0 0.0 0.00 0.00 0.00 84 1013.5
20260906031519 76 232 0.0 0.0 0.00 0.00 0.00 83 1013.5
20260906031021 76 232 0.0 0.0 0.00 0.00 0.00 83 1013.5
20260906030513 76 232 0.0 0.0 0.00 0.00 0.00 83 1013.5
20260906030027 76 232 0.0 0.0 0.00 0.00 0.00 83 1013.5
20260906025516 76 232 0.0 0.0 0.00 0.00 0.00 83 1013.6
20260906025017 77 232 0.0 0.0 0.00 0.00 0.00 83 1013.7
20260906024526 76 232 0.0 0.0 0.00 0.00 0.00 83 1013.6
20260906024006 77 232 0.0 0.0 0.00 0.00 0.00 82 1013.6
20260906023505 77 232 0.0 0.0 0.00 0.00 0.00 82 1013.5
20260906023019 77 232 0.0 0.0 0.00 0.00 0.00 82 1013.4
20260906022505 77 232 0.0 0.0 0.00 0.00 0.00 82 1013.2
20260906022008 77 232 0.0 0.0 0.00 0.00 0.00 82 1013.1
20260906021521 77 232 0.0 0.0 0.00 0.00 0.00 82 1013.0
20260906021011 77 232 0.0 0.0 0.00 0.00 0.00 81 1012.9
20260906020513 77 232 0.0 0.0 0.00 0.00 0.00 81 1012.8
20260906020030 77 232 0.0 0.0 0.00 0.00 0.00 81 1012.8
20260906015511 78 232 0.0 0.0 0.00 0.00 0.00 81 1012.7
20260906015016 78 232 0.0 0.0 0.00 0.00 0.00 80 1012.6
20260906014549 78 230 0.0 0.0 0.00 0.00 0.00 80 1012.7
20260906014017 78 230 0.0 0.0 0.00 0.00 0.00 80 1012.6
20260906013506 78 212 0.0 0.0 0.00 0.00 0.00 80 1012.5
20260906013034 78 212 0.0 0.0 0.00 0.00 0.00 80 1012.5
20260906012505 78 212 0.0 0.0 0.00 0.00 0.00 79 1012.4
20260906012006 79 212 0.0 0.0 0.00 0.00 0.00 79 1012.4
20260906011520 79 212 0.0 0.0 0.00 0.00 0.00 79 1012.3
20260906011011 79 212 0.0 0.0 0.00 0.00 0.00 79 1012.3
20260906010511 79 212 0.0 0.0 0.00 0.00 0.00 78 1012.2
20260906010028 79 212 0.0 0.0 0.00 0.00 0.00 78 1012.1
20260906005513 80 214 0.0 0.0 0.00 0.00 0.00 77 1012.0
20260906005015 80 305 0.0 0.0 0.00 0.00 0.00 76 1011.9
20260906004531 81 305 0.0 0.0 0.00 0.00 0.00 76 1012.0
20260906004015 81 305 0.0 0.0 0.00 0.00 0.00 75 1012.0
20260906003516 81 305 0.0 0.0 0.00 0.00 0.00 74 1011.9
20260906003034 81 305 0.0 0.0 0.00 0.00 0.00 74 1012.0
20260906002515 81 305 0.0 0.0 0.00 0.00 0.00 74 1012.0
20260906002004 82 305 0.0 0.0 0.00 0.00 0.00 73 1012.0
20260906001512 82 305 0.0 0.0 0.00 0.00 0.00 73 1012.1
20260906001004 82 228 0.0 0.9 0.00 0.00 0.00 73 1012.0
20260906000503 82 227 0.0 1.7 0.00 0.00 0.00 72 1012.1
20260906000012 82 215 0.0 2.6 0.00 0.00 0.00 72 1012.2
20260905235503 82 211 0.9 2.6 0.00 0.00 0.00 72 1012.2
20260905235003 83 240 0.0 1.7 0.00 0.00 0.00 71 1012.3
20260905234514 83 259 0.9 3.5 0.00 0.00 0.00 71 1012.2
20260905234004 83 232 1.7 3.5 0.00 0.00 0.00 71 1012.2
20260905233504 83 219 1.7 6.1 0.00 0.00 0.00 70 1012.4
20260905233012 83 216 2.6 6.1 0.00 0.00 0.00 70 1012.3
20260905232504 83 233 1.7 5.2 0.00 0.00 0.00 70 1012.4
20260905232004 84 199 3.5 5.2 0.00 0.00 0.00 69 1012.4
20260905231510 83 252 0.9 6.1 0.00 0.00 0.00 70 1012.4
20260905231003 83 226 2.6 7.0 0.00 0.00 0.00 69 1012.4
20260905230504 83 221 4.3 7.0 0.00 0.00 0.00 69 1012.4
20260905230012 84 238 3.5 6.1 0.00 0.00 0.00 69 1012.3
20260905225505 84 215 2.6 7.0 0.00 0.00 0.00 69 1012.3
20260905225007 84 242 4.3 7.0 0.00 0.00 0.00 68 1012.4
20260905224512 84 228 4.3 7.0 0.00 0.00 0.00 68 1012.3
20260905224003 84 238 3.5 6.1 0.00 0.00 0.00 69 1012.3
20260905223503 84 213 4.3 8.7 0.00 0.00 0.00 68 1012.4
20260905223009 85 225 5.2 8.7 0.00 0.00 0.00 67 1012.3
20260905222504 85 214 2.6 7.0 0.00 0.00 0.00 68 1012.3
20260905222004 85 245 4.3 8.7 0.00 0.00 0.00 68 1012.4
20260905221513 85 224 4.3 8.7 0.00 0.00 0.00 67 1012.4
20260905221006 86 240 3.5 9.6 0.00 0.00 0.00 66 1012.3
20260905220505 87 263 5.2 9.6 0.00 0.00 0.00 65 1012.4
20260905220015 88 223 4.3 7.8 0.00 0.00 0.00 64 1012.3
20260905215507 87 209 3.5 7.0 0.00 0.00 0.00 64 1012.2
20260905215004 87 216 3.5 7.0 0.00 0.00 0.00 63 1012.2
20260905214515 87 226 2.6 6.1 0.00 0.00 0.00 64 1012.2
20260905214009 87 247 2.6 7.8 0.00 0.00 0.00 63 1012.2
20260905213509 87 227 4.3 8.7 0.00 0.00 0.00 63 1012.3
20260905213016 87 208 5.2 8.7 0.00 0.00 0.00 62 1012.4
20260905212508 87 267 3.5 7.0 0.00 0.00 0.00 64 1012.4
20260905212008 86 198 3.5 6.1 0.00 0.00 0.00 66 1012.5
20260905211511 86 209 3.5 7.8 0.00 0.00 0.00 66 1012.6
20260905211010 86 233 5.2 8.7 0.00 0.00 0.00 65 1012.7
20260905210506 86 219 2.6 8.7 0.00 0.00 0.00 66 1012.7
20260905205516 87 215 4.3 7.8 0.00 0.00 0.00 63 1012.7
20260905205012 87 216 4.3 8.7 0.00 0.00 0.00 63 1012.6
20260905204529 88 202 4.3 8.7 0.00 0.00 0.00 61 1012.7
20260905204011 88 205 3.5 7.8 0.00 0.00 0.00 63 1012.8
20260905203515 87 192 3.5 8.7 0.00 0.00 0.00 62 1012.9
20260905203030 87 257 3.5 8.7 0.00 0.00 0.00 63 1012.9
20260905202514 87 217 3.5 7.0 0.00 0.00 0.00 63 1013.0
20260905202017 87 170 4.3 7.0 0.00 0.00 0.00 63 1013.1
20260905201534 86 160 1.7 6.1 0.00 0.00 0.00 65 1013.1
20260905201018 86 192 1.7 7.0 0.00 0.00 0.00 64 1013.2
20260905200518 86 246 3.5 7.0 0.00 0.00 0.00 64 1013.1
20260905200041 86 202 3.5 7.8 0.00 0.00 0.00 64 1013.3
20260905195517 86 238 3.5 7.8 0.00 0.00 0.00 64 1013.4
20260905195019 86 269 3.5 8.7 0.00 0.00 0.00 64 1013.3
20260905194535 86 217 5.2 8.7 0.00 0.00 0.00 64 1013.4
20260905194013 86 188 3.5 9.6 0.00 0.00 0.00 64 1013.4
20260905193511 86 202 5.2 10.4 0.00 0.00 0.00 64 1013.3
20260905193029 86 237 6.1 10.4 0.00 0.00 0.00 64 1013.4
20260905192516 85 220 4.3 8.7 0.00 0.00 0.00 65 1013.5
20260905192016 85 180 5.2 8.7 0.00 0.00 0.00 65 1013.4
20260905191534 85 173 5.2 9.6 0.00 0.00 0.00 66 1013.5
20260905191018 85 184 5.2 8.7 0.00 0.00 0.00 65 1013.6
20260905190516 85 210 6.1 8.7 0.00 0.00 0.00 66 1013.7
20260905190035 85 229 2.6 9.6 0.00 0.00 0.00 66 1013.8
20260905185521 85 244 3.5 9.6 0.00 0.00 0.00 66 1013.8
20260905185018 85 222 5.2 7.8 0.00 0.00 0.00 66 1013.8
20260905184542 85 186 1.7 7.0 0.00 0.00 0.00 66 1013.9
20260905184016 85 186 3.5 7.0 0.00 0.00 0.00 68 1014.0
20260905183521 84 248 3.5 9.6 0.00 0.00 0.00 68 1014.1
20260905183034 85 260 3.5 9.6 0.00 0.00 0.00 66 1014.1
20260905182513 85 198 5.2 7.8 0.00 0.00 0.00 67 1014.2
20260905182016 84 195 2.6 12.2 0.00 0.00 0.00 67 1014.3
20260905181534 85 229 4.3 12.2 0.00 0.00 0.00 66 1014.4
20260905181025 86 263 4.3 12.2 0.00 0.00 0.00 64 1014.5
20260905180520 86 203 3.5 10.4 0.00 0.00 0.00 64 1014.6
20260905180028 86 201 4.3 11.3 0.00 0.00 0.00 64 1014.7
20260905180016 86 200 4.3 11.3 0.00 0.00 0.00 64 1014.7
20260905175508 86 169 3.5 11.3 0.00 0.00 0.00 66 1014.8
20260905175008 85 251 3.5 10.4 0.00 0.00 0.00 69 1014.8
20260905174524 84 249 7.0 10.4 0.00 0.00 0.00 68 1014.8
20260905174008 83 225 4.3 10.4 0.00 0.00 0.00 68 1015.0
20260905173512 83 188 6.1 10.4 0.00 0.00 0.00 69 1015.2
20260905173023 83 224 5.2 13.9 0.00 0.00 0.00 69 1015.1
20260905172511 83 165 6.1 13.9 0.00 0.00 0.00 69 1015.2
20260905172014 84 215 7.0 12.2 0.00 0.00 0.00 69 1015.1
20260905171527 83 172 5.2 12.2 0.00 0.00 0.00 72 1015.2
20260905171012 83 178 5.2 9.6 0.00 0.00 0.00 68 1015.2
20260905170512 83 207 4.3 9.6 0.00 0.00 0.00 68 1015.3
20260905170012 84 221 5.2 9.6 0.00 0.00 0.00 68 1015.3
20260905165512 83 243 6.1 9.6 0.00 0.00 0.00 70 1015.4
20260905165004 82 236 4.3 10.4 0.00 0.00 0.00 70 1015.5
20260905164516 83 261 6.1 11.3 0.00 0.00 0.00 71 1015.5
20260905164013 82 181 6.1 11.3 0.00 0.00 0.00 70 1015.5
20260905163507 83 206 6.1 11.3 0.00 0.00 0.00 69 1015.5
20260905163033 84 139 7.8 11.3 0.00 0.00 0.00 68 1015.6
20260905162512 84 196 5.2 10.4 0.00 0.00 0.00 69 1015.7
20260905162013 84 215 5.2 9.6 0.00 0.00 0.00 68 1015.7
20260905161535 84 215 6.1 8.7 0.00 0.00 0.00 68 1015.8
20260905161016 84 189 5.2 11.3 0.00 0.00 0.00 68 1015.8
20260905160515 85 213 4.3 11.3 0.00 0.00 0.00 68 1015.7
20260905160029 85 223 6.1 9.6 0.00 0.00 0.00 68 1015.7
20260905155512 84 204 5.2 10.4 0.00 0.00 0.00 67 1015.6
20260905155004 85 196 7.0 10.4 0.00 0.00 0.00 67 1015.5
20260905154516 85 250 5.2 9.6 0.00 0.00 0.00 67 1015.5
20260905154007 85 255 5.2 9.6 0.00 0.00 0.00 68 1015.4
20260905153513 85 246 5.2 9.6 0.00 0.00 0.00 68 1015.3
20260905153026 85 215 5.2 9.6 0.00 0.00 0.00 67 1015.4
20260905152509 85 215 5.2 9.6 0.00 0.00 0.00 68 1015.4
20260905152013 85 242 4.3 7.8 0.00 0.00 0.00 66 1015.4
20260905151532 85 200 3.5 7.8 0.00 0.00 0.00 68 1015.3
20260905151012 85 196 3.5 7.0 0.00 0.00 0.00 68 1015.3
20260905150519 84 254 1.7 7.0 0.00 0.00 0.00 70 1015.2
20260905150008 84 205 2.6 7.0 0.00 0.00 0.00 70 1015.2
20260905145505 83 192 2.6 4.3 0.00 0.00 0.00 70 1015.2
20260905145006 83 177 1.7 5.2 0.00 0.00 0.00 70 1015.3
20260905144514 83 182 2.6 5.2 0.00 0.00 0.00 70 1015.3
20260905144005 83 196 3.5 4.3 0.00 0.00 0.00 70 1015.3
20260905143508 83 195 2.6 4.3 0.00 0.00 0.00 70 1015.3
20260905143026 84 225 2.6 3.5 0.00 0.00 0.00 69 1015.3
20260905142508 84 207 0.0 2.6 0.00 0.00 0.00 69 1015.2
20260905142002 84 252 0.0 0.9 0.00 0.00 0.00 68 1015.2
20260905141504 84 360 0.0 2.6 0.00 0.00 0.00 68 1015.1
20260905141003 84 360 0.0 3.5 0.00 0.00 0.00 68 1015.1
20260905140503 83 352 0.9 3.5 0.00 0.00 0.00 69 1015.1
20260905140007 83 28 1.7 3.5 0.00 0.00 0.00 70 1015.2
20260905135503 82 17 1.7 2.6 0.00 0.00 0.00 70 1015.0